Theta_e
309 310 312 314 314 315 316 317 317 314 312 315 314 313 313 314 315 316 319 324 324 324 330 335 334 340 340 338 343 346 352 355 355 348 351 349 346 347 340 342 343 343 342 341 341
309 310 311 313 314 315 316 317 317 312 311 313 313 313 312 313 314 320 323 322 321 322 327 331 338 339 336 336 345 349 355 353 349 346 350 349 341 344 345 342 343 342 341 340 340
310 310 311 312 314 315 317 318 318 313 311 312 312 312 312 313 317 326 325 322 321 323 329 328 332 332 334 340 344 348 355 349 347 347 347 347 350 347 344 345 342 341 340 340 341
312 312 312 312 314 315 317 319 319 320 321 321 319 314 312 312 335 324 323 322 323 323 325 328 329 332 335 344 346 352 349 348 346 347 347 346 344 347 344 343 342 340 340 340 341
315 314 313 313 314 316 318 320 320 321 322 322 324 322 315 323 329 331 328 320 324 323 327 329 331 334 338 345 345 347 348 346 347 347 345 346 348 349 345 342 342 340 341 341 341
317 316 315 314 315 316 318 320 321 322 321 321 323 324 323 334 331 330 319 320 325 324 327 330 330 335 343 346 346 345 347 345 346 347 345 347 346 348 343 341 342 341 341 341 340
318 317 316 314 315 317 320 322 324 320 320 322 323 323 330 335 330 329 323 322 324 326 327 330 329 330 340 345 344 347 349 347 343 344 345 342 343 343 340 348 340 341 342 341 341
320 319 317 315 315 317 321 323 324 325 323 323 324 324 333 330 329 327 325 325 327 327 327 327 327 329 342 338 344 348 349 354 346 345 345 340 346 342 342 346 346 342 341 342 342
321 320 319 317 315 317 322 324 324 324 325 325 325 326 333 331 326 326 324 324 325 326 327 327 326 329 339 344 345 344 350 351 352 347 346 342 345 342 339 345 348 342 343 341 341
321 320 320 319 316 316 322 323 324 324 325 324 326 332 333 329 327 324 324 323 323 326 328 328 329 331 337 345 349 345 345 347 354 351 346 346 348 346 340 345 344 346 340 342 342
321 321 320 320 318 314 321 325 332 328 333 330 332 331 329 325 325 325 325 324 323 326 328 328 329 333 339 342 340 339 340 346 350 348 351 352 352 347 343 343 347 344 345 341 343
318 321 321 320 318 315 320 324 328 326 327 329 330 328 327 324 324 325 325 323 323 325 327 329 329 331 339 339 340 339 339 346 345 344 345 343 352 350 345 345 345 343 346 343 344
317 318 322 320 316 314 318 326 327 325 327 328 329 327 326 325 326 326 325 325 325 326 327 329 329 329 332 333 333 332 336 343 345 341 345 350 348 346 345 346 344 345 347 344 345
316 317 320 321 324 325 322 323 325 325 329 331 330 328 327 325 325 326 324 324 325 326 327 328 328 329 328 329 330 333 336 338 340 347 349 340 351 345 340 342 346 346 346 345 345
316 317 318 322 321 322 324 323 323 325 333 333 331 329 328 327 327 326 324 325 325 325 326 327 326 327 327 326 330 334 335 336 338 344 344 342 343 347 341 344 350 346 345 346 348
317 317 320 323 324 322 324 321 323 329 332 332 330 329 329 327 326 325 325 325 325 326 325 326 328 326 326 327 330 331 331 334 336 338 340 342 341 351 352 346 345 346 347 345 343
320 320 321 321 325 325 323 321 326 330 331 332 331 330 329 328 329 326 325 325 326 327 325 325 329 327 326 329 329 329 331 342 343 342 341 340 336 347 342 342 345 345 348 348 347
321 322 324 324 325 324 323 322 326 328 328 332 332 330 329 329 328 327 326 325 326 327 328 328 329 327 328 329 332 331 333 346 345 350 342 340 339 342 342 342 342 346 346 345 345
322 324 327 328 325 323 324 322 324 327 329 329 331 330 330 329 329 328 327 326 327 328 329 330 330 329 330 331 334 334 334 334 337 337 341 339 337 336 337 341 343 346 346 345 343
321 323 327 328 324 322 325 323 324 324 327 327 328 331 330 330 330 330 330 328 328 328 329 330 333 331 330 331 331 330 332 333 332 334 339 339 339 341 339 338 339 344 345 346 345
323 329 326 324 322 323 326 326 325 324 324 326 328 331 330 330 330 330 330 330 328 328 328 329 331 333 332 329 329 329 330 331 332 334 339 343 339 339 339 337 338 343 341 344 347
326 330 325 323 324 325 327 326 325 326 324 324 325 327 330 331 331 331 330 330 329 328 328 328 329 335 333 331 330 330 332 331 333 334 335 341 340 338 338 336 341 343 344 346 346
327 330 328 325 328 328 328 327 326 326 325 324 325 325 328 330 333 330 331 331 330 328 329 329 328 330 336 334 331 331 332 331 333 335 338 339 340 339 336 337 338 342 344 345 347
327 333 330 328 326 328 329 329 329 326 325 324 325 325 325 328 330 329 330 331 330 330 327 329 328 331 336 337 335 333 332 331 332 333 337 340 340 339 338 338 337 342 343 343 346
327 330 329 331 331 331 330 328 328 328 325 324 325 324 325 327 328 328 329 330 330 328 330 330 330 331 334 335 335 333 332 331 331 331 332 335 339 338 342 339 338 338 341 342 344
325 326 326 328 329 330 329 331 329 329 329 326 325 324 325 325 326 329 329 331 332 331 330 331 335 332 333 335 335 333 331 330 329 329 329 332 336 340 338 339 341 339 340 341 342
324 324 324 325 326 328 330 329 329 329 328 328 328 329 324 326 326 327 329 330 330 331 332 332 332 336 334 335 336 337 331 330 329 329 330 331 338 341 339 337 336 341 339 340 341
Wind_Speed
8 7 7 8 8 9 10 11 12 10 7 6 6 7 7 8 8 8 9 10 12 11 9 6 11 11 15 15 9 18 4 3 3 3 4 9 4 5 11 12 8 8 24 24 21
10 9 9 9 9 10 10 11 11 10 5 3 4 5 6 7 9 14 12 12 14 11 9 8 13 13 16 11 7 5 5 6 14 14 14 9 9 7 6 12 16 26 26 23 20
11 10 10 10 10 10 10 10 10 9 5 1 2 4 6 6 6 12 17 15 12 11 9 10 13 13 19 3 1 5 4 7 8 10 19 6 1 2 15 4 16 23 24 22 19
12 11 11 11 10 10 9 9 8 7 6 4 1 3 6 9 3 6 10 13 11 10 10 11 13 19 15 4 7 7 16 9 7 11 11 4 1 11 11 2 11 23 21 20 19
13 12 12 11 11 10 10 8 7 5 4 4 2 1 5 8 12 4 12 11 11 10 9 11 15 12 4 6 9 11 13 11 16 11 12 6 7 3 18 9 14 21 19 18 18
15 14 13 12 11 10 10 10 4 2 2 2 2 2 5 12 1 5 6 11 10 10 11 12 14 8 13 5 8 11 15 12 15 15 15 8 8 9 18 9 15 20 19 17 18
16 15 13 12 11 10 10 8 4 2 2 2 4 6 8 13 3 4 8 11 11 11 13 10 9 12 6 18 15 18 16 14 14 12 8 8 3 8 16 17 14 16 18 18 17
17 16 15 13 11 10 9 8 8 4 5 4 5 7 8 8 6 9 10 13 13 12 12 11 11 14 9 16 20 6 6 8 13 13 8 8 4 4 12 10 7 15 16 17 20
18 17 16 15 12 10 9 9 9 4 6 6 5 6 16 10 8 12 11 13 13 13 12 12 13 16 13 9 7 6 2 9 14 15 11 4 3 9 15 4 15 12 21 21 18
18 18 17 16 13 10 9 11 9 6 8 9 12 9 13 14 6 12 11 10 14 13 12 14 16 15 17 9 7 3 5 10 11 10 12 10 11 7 14 9 15 21 20 21 20
19 18 17 16 14 10 8 11 5 5 13 16 5 12 6 4 6 9 11 11 14 16 14 17 12 15 22 12 23 20 18 17 10 14 11 13 12 11 21 20 27 15 13 23 17
19 18 17 15 13 9 8 7 8 9 16 21 19 13 3 7 9 11 11 14 14 14 16 15 14 18 19 17 20 17 14 8 6 9 10 11 7 7 18 18 20 24 20 16 15
19 19 17 13 10 4 7 12 10 11 13 21 21 17 13 11 12 15 16 17 13 15 16 17 15 13 13 6 9 11 3 7 6 6 7 19 4 6 6 11 19 20 23 16 10
19 19 17 12 4 5 9 7 8 11 7 13 16 14 17 12 14 16 17 15 10 14 15 15 15 4 10 12 10 14 7 10 12 11 5 6 4 4 8 13 18 22 20 26 32
20 18 14 14 12 6 6 6 9 7 6 16 18 12 18 22 15 18 16 19 14 12 12 12 13 14 10 13 12 5 5 9 5 12 7 12 7 6 9 13 19 22 26 27 25
20 18 16 9 12 5 11 9 8 6 10 12 11 12 16 19 11 16 16 18 15 13 13 19 6 10 12 13 12 9 3 9 11 11 11 11 4 1 10 8 18 22 27 25 26
19 16 17 14 8 3 7 7 6 9 14 12 18 14 17 16 14 11 15 15 13 11 11 13 11 10 15 12 6 11 14 2 5 4 8 9 6 8 12 14 24 33 24 25 24
21 17 15 14 10 10 7 8 12 12 20 10 13 15 16 16 14 13 14 14 18 18 12 14 13 14 10 14 7 12 15 7 3 6 5 16 4 8 18 11 13 9 15 14 20
22 15 14 10 7 8 12 12 13 18 18 16 13 11 18 17 11 15 18 16 18 18 18 11 12 18 14 15 12 8 10 10 16 18 11 11 10 12 9 12 13 11 21 25 29
21 18 13 9 8 7 10 18 18 24 26 20 17 11 16 19 18 16 17 18 18 19 17 19 11 12 15 12 10 11 12 9 8 4 1 6 5 8 7 7 7 8 23 17 19
13 8 8 9 6 12 11 16 19 30 30 20 15 18 14 17 16 15 17 14 16 18 13 16 10 6 11 9 13 9 11 11 13 4 5 4 4 11 9 3 7 20 33 28 14
12 6 9 7 10 11 14 19 26 25 23 17 14 19 19 17 21 18 17 14 16 20 19 13 14 13 15 13 13 17 12 9 7 5 6 11 8 13 11 7 15 15 16 14 10
8 16 10 7 8 11 17 21 23 21 19 18 18 18 19 17 15 14 14 18 20 15 10 11 13 10 7 12 15 8 9 11 9 4 7 9 9 10 11 10 11 18 15 10 9
8 5 9 14 18 17 18 16 16 21 17 13 16 20 17 18 16 13 18 16 9 8 4 5 15 14 6 11 14 13 10 13 14 9 6 9 9 13 12 14 6 19 16 11 10
7 6 14 7 9 11 15 16 20 13 15 20 17 20 16 17 15 15 18 18 12 11 4 8 15 17 9 15 17 7 9 6 8 10 11 5 10 2 5 9 14 13 16 14 11
8 19 18 20 20 16 13 11 16 15 17 15 14 18 17 14 14 15 16 15 13 12 13 13 14 15 15 10 19 15 7 7 8 12 10 10 6 16 17 16 16 12 14 13 11
13 13 14 18 16 11 11 11 19 15 21 20 8 7 16 9 15 21 13 13 14 13 14 16 13 12 16 13 19 24 11 10 10 9 6 7 12 13 8 5 8 13 10 12 12
Wind_Direction
15 13 6 1 355 351 350 346 342 332 306 274 258 251 244 235 229 235 234 238 234 263 235 249 247 260 255 261 224 65 38 49 9 51 124 264 102 12 114 127 59 128 142 133 137
12 7 0 356 352 351 350 351 347 342 325 270 243 237 238 237 240 243 233 251 252 241 235 244 249 253 275 246 98 134 216 103 175 183 179 222 140 158 162 116 114 102 118 137 143
12 4 356 350 350 350 353 356 1 7 15 60 199 212 220 225 262 245 224 244 238 221 219 279 285 272 274 2 51 223 47 102 64 114 153 153 142 195 99 60 129 125 135 144 151
10 2 355 349 346 348 353 358 3 16 46 61 92 194 204 205 253 183 204 229 222 213 251 275 261 261 268 73 175 98 88 82 77 122 146 147 285 79 65 86 122 134 146 151 163
7 360 354 349 345 343 346 354 350 3 33 45 50 187 196 235 253 276 243 203 206 215 249 263 275 308 355 7 86 10 98 107 93 102 140 107 317 157 113 149 158 139 150 163 166
2 357 351 345 340 337 340 344 335 316 354 15 6 270 231 251 102 279 214 194 194 226 255 253 280 328 293 258 95 175 118 113 112 119 147 142 19 346 111 174 153 150 156 170 154
358 354 347 340 333 332 338 352 -0 276 272 304 323 299 252 263 204 234 195 210 221 231 251 257 276 292 303 339 137 126 132 125 138 150 128 147 110 75 316 300 160 156 167 148 139
354 351 345 337 328 324 327 333 332 274 241 258 279 289 253 218 234 225 216 218 222 238 249 294 278 278 123 230 321 152 109 166 156 151 147 199 216 174 236 342 272 164 155 149 148
348 346 342 334 324 314 315 316 320 273 223 248 261 266 264 223 245 218 210 214 218 234 242 264 276 272 278 135 26 349 323 186 141 158 155 136 270 233 228 218 268 186 171 163 175
342 342 339 333 324 305 300 301 304 241 222 251 239 262 242 248 196 196 203 214 210 217 232 241 250 253 234 158 141 260 290 258 146 187 162 142 246 225 192 160 202 256 181 171 163
334 335 335 329 323 301 287 312 288 230 215 234 249 238 175 160 169 194 199 211 201 209 219 214 234 247 55 55 157 178 224 244 162 195 140 217 217 184 191 203 205 228 268 171 177
329 329 331 328 320 297 256 254 355 329 299 247 245 244 256 173 189 194 184 200 196 207 217 223 234 256 138 203 191 206 185 183 115 164 107 295 233 210 178 198 203 188 224 163 154
326 327 328 329 324 317 257 278 303 318 290 276 217 222 209 188 215 178 191 211 197 217 212 242 220 226 272 236 233 247 237 62 182 215 199 191 92 11 322 252 212 205 168 180 176
324 325 328 330 337 295 268 267 285 314 284 244 191 213 190 209 220 190 196 205 193 225 236 232 269 255 277 264 243 257 11 164 187 176 225 231 219 162 273 274 196 212 198 186 202
321 321 321 320 304 272 325 305 292 292 280 127 174 174 179 210 154 183 195 221 253 216 234 236 229 254 237 244 240 267 180 270 264 191 204 240 243 207 224 254 199 208 208 195 197
319 319 312 316 297 301 289 299 282 238 250 184 141 183 180 217 187 156 187 230 232 246 234 256 239 215 236 235 233 272 293 248 250 250 236 243 263 144 182 158 272 253 205 200 200
313 309 300 289 239 266 289 263 230 240 227 169 166 190 202 197 210 167 197 208 228 229 205 227 236 229 235 219 202 235 247 84 321 280 313 292 256 163 178 190 196 223 187 197 200
315 304 296 276 252 263 268 229 235 248 243 287 178 187 207 219 203 170 198 212 229 234 193 206 189 199 200 232 174 224 257 119 233 227 284 285 114 113 176 152 110 149 167 162 195
319 314 279 291 254 216 225 226 225 248 284 312 199 206 201 228 214 184 206 216 218 237 253 249 232 176 184 231 213 321 236 198 203 231 207 197 102 121 130 128 128 145 163 176 205
322 317 259 205 206 211 228 239 250 249 272 300 289 222 224 211 210 218 201 216 231 219 249 270 129 179 201 206 246 276 316 283 239 283 96 65 5 118 150 128 148 101 37 174 179
322 281 168 186 201 218 231 235 248 261 277 292 277 285 239 268 219 211 245 218 212 236 227 259 281 211 214 191 235 209 237 253 274 334 222 33 268 147 125 143 136 130 121 240 148
290 262 177 180 214 234 240 242 258 268 282 264 259 281 285 289 281 222 234 234 187 228 209 237 265 178 225 208 212 247 244 239 240 270 271 175 152 108 120 167 106 100 88 81 100
284 271 232 217 248 232 247 239 248 253 243 261 262 252 273 277 291 298 243 229 181 194 237 205 244 257 259 222 200 245 256 279 278 234 290 287 131 135 161 142 158 122 115 121 120
292 288 212 214 251 274 291 293 245 242 256 267 265 272 249 264 275 287 288 275 166 177 52 230 244 239 226 44 290 213 224 244 265 271 151 30 183 172 162 148 135 124 133 143 134
255 280 336 287 285 311 272 264 281 271 237 232 248 259 249 250 255 256 274 276 186 152 194 237 244 263 187 199 261 276 195 204 235 287 303 93 125 180 132 148 157 148 142 142 147
301 331 324 304 301 289 282 284 287 282 282 251 223 252 256 254 257 257 254 268 272 191 216 223 243 260 271 82 315 237 249 263 262 278 271 283 131 163 148 136 151 162 153 156 168
320 318 310 283 281 276 281 308 316 306 269 272 292 303 236 281 263 259 294 309 304 302 235 216 239 240 250 187 189 256 226 244 255 257 265 268 114 124 143 152 161 149 173 167 173